User: anonymous   Login
Location: Mount Graham
(32.7016°N, 109.8912°W)
Time: 00:53:16
(UTC-07:00)
Language:

Cosmos 1340 - Orbit

View from above orbital plane
View from above orbital plane
View from above satellite
View from above satellite

Ground track
Ground track

The orbit data is extracted from the following two-line orbital elements,

1 13067U 82013A   15241.44994093  .00002879  00000-0  14462-3 0  9992
2 13067 081.1902 180.0553 0002682 199.7563 300.1896 15.16981008828004
Epoch (UTC): 29 August 2015 10:47:54
Eccentricity: 0.0002682
inclination: 81.1902°
perigee height: 513 km
apogee height: 517 km
right ascension of ascending node: 180.0553°
argument of perigee: 199.7563°
revolutions per day: 15.16981008
mean anomaly at epoch: 300.1896°
orbit number at epoch: 82800

The dashed part of the orbit path shows where the satellite is in the earth's shadow,  

DLR